Time,TemperatureF,DewpointF,PressureIn,WindDirection,WindDirectionDegrees,WindSpeedMPH,WindSpeedGustMPH,Humidity,HourlyPrecipIn,Conditions,Clouds,dailyrainin,SoftwareType,DateUTC
2013-10-07 00:04:00,56.0,-99.9,-100.00,SW,224,18.0,0.0,-999,-99.99,,,-99.99,,2013-10-07 04:04:00,
2013-10-07 00:25:00,55.0,-99.9,-100.00,SSW,213,20.0,27.0,-999,-99.99,,,-99.99,,2013-10-07 04:25:00,
2013-10-07 00:34:00,55.0,-99.9,-100.00,SSW,213,20.0,27.0,-999,-99.99,,,-99.99,,2013-10-07 04:34:00,
2013-10-07 00:44:00,55.0,-99.9,-100.00,SSW,213,20.0,27.0,-999,-99.99,,,-99.99,,2013-10-07 04:44:00,
2013-10-07 00:53:00,55.0,-99.9,-100.00,SW,216,18.0,25.0,-999,-99.99,,,-99.99,,2013-10-07 04:53:00,
2013-10-07 01:03:00,55.0,-99.9,-100.00,SW,216,18.0,25.0,-999,-99.99,,,-99.99,,2013-10-07 05:03:00,
2013-10-07 01:13:00,55.0,-99.9,-100.00,SW,216,18.0,25.0,-999,-99.99,,,-99.99,,2013-10-07 05:13:00,
2013-10-07 01:23:00,55.0,-99.9,-100.00,SW,217,21.0,25.0,-999,-99.99,,,-99.99,,2013-10-07 05:23:00,
2013-10-07 01:34:00,55.0,-99.9,-100.00,SW,217,21.0,25.0,-999,-99.99,,,-99.99,,2013-10-07 05:34:00,
2013-10-07 01:52:00,54.0,-99.9,-100.00,SW,216,22.0,28.0,-999,-99.99,,,-99.99,,2013-10-07 05:52:00,
2013-10-07 02:22:00,54.0,-99.9,-100.00,SSW,212,22.0,27.0,-999,-99.99,,,-99.99,,2013-10-07 06:22:00,
2013-10-07 02:32:00,54.0,-99.9,-100.00,SSW,212,22.0,27.0,-999,-99.99,,,-99.99,,2013-10-07 06:32:00,
2013-10-07 03:12:00,54.0,-99.9,-100.00,SW,227,21.0,27.0,-999,-99.99,,,-99.99,,2013-10-07 07:12:00,
2013-10-07 03:22:00,54.0,-99.9,-100.00,SW,223,21.0,26.0,-999,-99.99,,,-99.99,,2013-10-07 07:22:00,
2013-10-07 03:52:00,54.0,-99.9,-100.00,SW,226,21.0,27.0,-999,-99.99,,,-99.99,,2013-10-07 07:52:00,
2013-10-07 04:03:00,54.0,-99.9,-100.00,SW,226,21.0,27.0,-999,-99.99,,,-99.99,,2013-10-07 08:03:00,
2013-10-07 04:22:00,54.0,-99.9,-100.00,SW,227,18.0,26.0,-999,-99.99,,,-99.99,,2013-10-07 08:22:00,
2013-10-07 04:42:00,54.0,-99.9,-100.00,SW,231,22.0,28.0,-999,-99.99,,,-99.99,,2013-10-07 08:42:00,
2013-10-07 04:52:00,54.0,-99.9,-100.00,SW,231,22.0,28.0,-999,-99.99,,,-99.99,,2013-10-07 08:52:00,
2013-10-07 05:11:00,53.0,-99.9,-100.00,SW,214,22.0,26.0,-999,-99.99,,,-99.99,,2013-10-07 09:11:00,
2013-10-07 05:22:00,53.0,-99.9,-100.00,SW,220,21.0,26.0,-999,-99.99,,,-99.99,,2013-10-07 09:22:00,
2013-10-07 05:43:00,53.0,-99.9,-100.00,SW,214,22.0,26.0,-999,-99.99,,,-99.99,,2013-10-07 09:43:00,
2013-10-07 05:54:00,53.0,-99.9,-100.00,SW,214,22.0,26.0,-999,-99.99,,,-99.99,,2013-10-07 09:54:00,
2013-10-07 06:03:00,53.0,-99.9,-100.00,SW,214,22.0,26.0,-999,-99.99,,,-99.99,,2013-10-07 10:03:00,
2013-10-07 06:53:00,54.0,-99.9,-100.00,SW,219,24.0,29.0,-999,-99.99,,,-99.99,,2013-10-07 10:53:00,
2013-10-07 07:03:00,54.0,-99.9,-100.00,SW,219,24.0,29.0,-999,-99.99,,,-99.99,,2013-10-07 11:03:00,
2013-10-07 07:22:00,54.0,-99.9,-100.00,SW,231,22.0,29.0,-999,-99.99,,,-99.99,,2013-10-07 11:22:00,
2013-10-07 07:33:00,54.0,-99.9,-100.00,SW,231,22.0,29.0,-999,-99.99,,,-99.99,,2013-10-07 11:33:00,
2013-10-07 08:22:00,55.0,-99.9,-100.00,SW,228,21.0,27.0,-999,-99.99,,,-99.99,,2013-10-07 12:22:00,
2013-10-07 08:32:00,55.0,-99.9,-100.00,SW,228,21.0,27.0,-999,-99.99,,,-99.99,,2013-10-07 12:32:00,
2013-10-07 09:22:00,55.0,-99.9,-100.00,WSW,240,22.0,31.0,-999,-99.99,,,-99.99,,2013-10-07 13:22:00,
2013-10-07 09:52:00,55.0,-99.9,-100.00,SW,233,23.0,29.0,-999,-99.99,,,-99.99,,2013-10-07 13:52:00,
2013-10-07 10:11:00,55.0,-99.9,-100.00,SW,227,24.0,0.0,-999,-99.99,,,-99.99,,2013-10-07 14:11:00,
2013-10-07 10:22:00,55.0,-99.9,-100.00,SW,232,23.0,28.0,-999,-99.99,,,-99.99,,2013-10-07 14:22:00,
2013-10-07 10:33:00,55.0,-99.9,-100.00,SW,232,23.0,28.0,-999,-99.99,,,-99.99,,2013-10-07 14:33:00,
2013-10-07 10:52:00,55.0,-99.9,-100.00,SW,227,24.0,0.0,-999,-99.99,,,-99.99,,2013-10-07 14:52:00,
2013-10-07 11:11:00,55.0,-99.9,-100.00,SW,227,24.0,0.0,-999,-99.99,,,-99.99,,2013-10-07 15:11:00,
2013-10-07 11:22:00,55.0,-99.9,-100.00,WSW,247,20.0,25.0,-999,-99.99,,,-99.99,,2013-10-07 15:22:00,
2013-10-07 11:33:00,55.0,-99.9,-100.00,WSW,247,20.0,25.0,-999,-99.99,,,-99.99,,2013-10-07 15:33:00,
2013-10-07 11:54:00,55.0,-99.9,-100.00,SW,233,23.0,28.0,-999,-99.99,,,-99.99,,2013-10-07 15:54:00,
2013-10-07 12:03:00,55.0,-99.9,-100.00,SW,233,23.0,28.0,-999,-99.99,,,-99.99,,2013-10-07 16:03:00,
2013-10-07 12:23:00,58.0,-99.9,-100.00,WSW,248,21.0,26.0,-999,-99.99,,,-99.99,,2013-10-07 16:23:00,
2013-10-07 12:33:00,58.0,-99.9,-100.00,WSW,248,21.0,26.0,-999,-99.99,,,-99.99,,2013-10-07 16:33:00,
2013-10-07 12:43:00,58.0,-99.9,-100.00,WSW,248,21.0,26.0,-999,-99.99,,,-99.99,,2013-10-07 16:43:00,
2013-10-07 12:53:00,58.0,-99.9,-100.00,WSW,248,21.0,26.0,-999,-99.99,,,-99.99,,2013-10-07 16:53:00,
2013-10-07 13:12:00,57.0,-99.9,-100.00,WSW,250,22.0,28.0,-999,-99.99,,,-99.99,,2013-10-07 17:12:00,
2013-10-07 13:23:00,58.0,-99.9,-100.00,WSW,248,22.0,26.0,-999,-99.99,,,-99.99,,2013-10-07 17:23:00,
2013-10-07 13:43:00,57.0,-99.9,-100.00,WSW,254,18.0,28.0,-999,-99.99,,,-99.99,,2013-10-07 17:43:00,
2013-10-07 14:22:00,58.0,-99.9,-100.00,West,273,15.0,20.0,-999,-99.99,,,-99.99,,2013-10-07 18:22:00,
2013-10-07 14:33:00,58.0,-99.9,-100.00,West,273,15.0,20.0,-999,-99.99,,,-99.99,,2013-10-07 18:33:00,
2013-10-07 14:42:00,58.0,-99.9,-100.00,West,273,15.0,20.0,-999,-99.99,,,-99.99,,2013-10-07 18:42:00,
2013-10-07 14:52:00,58.0,-99.9,-100.00,West,260,15.0,27.0,-999,-99.99,,,-99.99,,2013-10-07 18:52:00,
2013-10-07 15:12:00,59.0,-99.9,-100.00,West,273,14.0,22.0,-999,-99.99,,,-99.99,,2013-10-07 19:12:00,
2013-10-07 15:22:00,59.0,-99.9,-100.00,West,260,12.0,17.0,-999,-99.99,,,-99.99,,2013-10-07 19:22:00,
2013-10-07 15:32:00,59.0,-99.9,-100.00,West,260,12.0,17.0,-999,-99.99,,,-99.99,,2013-10-07 19:32:00,
2013-10-07 15:53:00,59.0,-99.9,-100.00,West,273,14.0,22.0,-999,-99.99,,,-99.99,,2013-10-07 19:53:00,
2013-10-07 16:02:00,59.0,-99.9,-100.00,West,273,14.0,22.0,-999,-99.99,,,-99.99,,2013-10-07 20:02:00,
2013-10-07 16:12:00,59.0,-99.9,-100.00,West,273,14.0,22.0,-999,-99.99,,,-99.99,,2013-10-07 20:12:00,
2013-10-07 16:22:00,60.0,-99.9,-100.00,WNW,284,13.0,20.0,-999,-99.99,,,-99.99,,2013-10-07 20:22:00,
2013-10-07 16:43:00,59.0,-99.9,-100.00,West,277,12.0,18.0,-999,-99.99,,,-99.99,,2013-10-07 20:43:00,
2013-10-07 17:23:00,61.0,-99.9,-100.00,West,263,10.0,14.0,-999,-99.99,,,-99.99,,2013-10-07 21:23:00,
2013-10-07 17:43:00,61.0,-99.9,-100.00,West,268,11.0,20.0,-999,-99.99,,,-99.99,,2013-10-07 21:43:00,
2013-10-07 17:55:00,61.0,-99.9,-100.00,West,268,11.0,20.0,-999,-99.99,,,-99.99,,2013-10-07 21:55:00,
2013-10-07 18:13:00,61.0,-99.9,-100.00,West,268,11.0,20.0,-999,-99.99,,,-99.99,,2013-10-07 22:13:00,
2013-10-07 18:54:00,63.0,-99.9,-100.00,WSW,241,9.0,16.0,-999,-99.99,,,-99.99,,2013-10-07 22:54:00,
2013-10-07 19:03:00,63.0,-99.9,-100.00,WSW,241,9.0,16.0,-999,-99.99,,,-99.99,,2013-10-07 23:03:00,
2013-10-07 19:23:00,62.0,-99.9,-100.00,WSW,257,6.0,11.0,-999,-99.99,,,-99.99,,2013-10-07 23:23:00,
2013-10-07 19:34:00,62.0,-99.9,-100.00,WSW,257,6.0,11.0,-999,-99.99,,,-99.99,,2013-10-07 23:34:00,
2013-10-07 19:52:00,63.0,-99.9,-100.00,WSW,245,7.0,13.0,-999,-99.99,,,-99.99,,2013-10-07 23:52:00,
2013-10-07 20:12:00,63.0,-99.9,-100.00,WSW,245,7.0,13.0,-999,-99.99,,,-99.99,,2013-10-08 00:12:00,
2013-10-07 20:22:00,56.0,-99.9,-100.00,North,-999,0.0,4.0,-999,-99.99,,,-99.99,,2013-10-08 00:22:00,
2013-10-07 20:32:00,56.0,-99.9,-100.00,North,-999,0.0,4.0,-999,-99.99,,,-99.99,,2013-10-08 00:32:00,
2013-10-07 21:12:00,60.0,-99.9,-100.00,SW,226,3.0,11.0,-999,-99.99,,,-99.99,,2013-10-08 01:12:00,
2013-10-07 21:22:00,55.0,-99.9,-100.00,SE,130,2.0,6.0,-999,-99.99,,,-99.99,,2013-10-08 01:22:00,
2013-10-07 21:32:00,55.0,-99.9,-100.00,SE,130,2.0,6.0,-999,-99.99,,,-99.99,,2013-10-08 01:32:00,
2013-10-07 21:52:00,54.0,-99.9,-100.00,East,97,1.0,4.0,-999,-99.99,,,-99.99,,2013-10-08 01:52:00,
2013-10-07 22:22:00,55.0,-99.9,-100.00,SE,140,2.0,5.0,-999,-99.99,,,-99.99,,2013-10-08 02:22:00,
2013-10-07 22:32:00,55.0,-99.9,-100.00,SE,140,2.0,5.0,-999,-99.99,,,-99.99,,2013-10-08 02:32:00,
2013-10-07 22:53:00,55.0,-99.9,-100.00,SSE,148,2.0,6.0,-999,-99.99,,,-99.99,,2013-10-08 02:53:00,
2013-10-07 23:12:00,55.0,-99.9,-100.00,SSE,148,2.0,6.0,-999,-99.99,,,-99.99,,2013-10-08 03:12:00,
2013-10-07 23:22:00,52.0,-99.9,-100.00,SE,138,2.0,4.0,-999,-99.99,,,-99.99,,2013-10-08 03:22:00,
2013-10-07 23:34:00,52.0,-99.9,-100.00,SE,138,2.0,4.0,-999,-99.99,,,-99.99,,2013-10-08 03:34:00,
2013-10-07 23:44:00,52.0,-99.9,-100.00,SE,138,2.0,4.0,-999,-99.99,,,-99.99,,2013-10-08 03:44:00,
2013-10-07 23:55:00,52.0,-99.9,-100.00,SE,127,1.0,6.0,-999,-99.99,,,-99.99,,2013-10-08 03:55:00,